Date,TemperatureHighF,TemperatureAvgF,TemperatureLowF,DewpointHighF,DewpointAvgF,DewpointLowF,HumidityHigh,HumidityAvg,HumidityLow,PressureMaxIn,PressureMinIn,WindSpeedMaxMPH,WindSpeedAvgMPH,GustSpeedMaxMPH,PrecipitationSumIn
2013-4-1,40,34,27,36,30,23,86,86,86,30.00,30.00,10,6,32,0.00
2013-4-2,45,36,22,41,32,18,86,86,86,30.00,30.00,12,5,22,0.00
2013-4-3,50,39,23,46,35,19,86,86,86,30.00,30.00,6,2,32,0.00
2013-4-4,61,49,30,57,45,26,86,86,86,30.00,30.00,8,3,32,0.00
2013-4-5,57,47,34,53,43,30,86,86,86,30.00,30.00,7,3,32,0.00
2013-4-6,71,57,38,67,53,34,86,86,86,30.00,30.00,16,9,175,0.04
2013-4-7,65,52,39,61,48,35,86,86,86,30.00,30.00,9,3,175,0.04
2013-4-8,74,60,45,70,56,41,86,86,86,30.00,30.00,15,5,39,1.00
2013-4-9,79,56,43,74,52,39,86,86,86,30.00,30.00,14,7,34,0.01
2013-4-10,43,41,37,39,37,33,86,86,86,30.00,30.00,17,8,34,1.47
2013-4-11,49,43,37,45,39,33,86,86,86,30.00,30.00,12,5,32,1.01
2013-4-12,42,38,36,38,34,32,86,86,86,30.00,30.00,12,6,32,0.01
2013-4-13,51,41,34,47,37,30,86,86,86,30.00,30.00,9,5,32,0.00
2013-4-14,77,57,40,72,53,36,86,86,86,30.00,30.00,16,8,38,0.24
2013-4-15,64,52,42,60,48,38,86,86,86,30.00,30.00,12,3,95,0.50
2013-4-16,51,45,36,47,41,32,86,86,86,30.00,30.00,7,2,95,0.02
2013-4-17,48,43,41,44,39,37,86,86,86,30.00,30.00,13,7,32,1.10
2013-4-23,41,39,39,37,35,35,86,86,86,30.00,30.00,8,5,32,0.36
2013-4-24,54,43,36,50,39,32,86,86,86,30.00,30.00,9,5,32,0.02
2013-4-25,57,46,37,53,42,33,86,86,86,30.00,30.00,13,6,34,0.02
2013-4-26,68,58,43,64,54,39,86,86,86,30.00,30.00,15,7,33,0.01
2013-4-27,68,58,43,64,54,39,86,86,86,30.00,30.00,8,2,32,0.00
2013-4-28,74,61,48,70,57,44,86,86,86,30.00,30.00,6,1,32,0.00
2013-4-29,80,68,50,75,63,46,86,86,86,30.00,30.00,14,7,32,0.00
2013-4-30,88,77,62,83,72,58,86,86,86,30.00,30.00,16,8,32,0.00